GW4152 Weather Reports


time (UTC)temp
F
wind
direction
speed
knots
gust
knots
rain 1hr
in
rain 24hr
in
rain mn
in
humidity
%
barometer
mb
20260504031020 52 242 4.3 18.2 0.00 0.00 0.00 54 1008.3
20260504030520 53 213 7.0 18.2 0.00 0.00 0.00 54 1008.3
20260504030043 52 219 4.3 13.0 0.00 0.00 0.00 55 1008.4
20260504025521 52 180 5.2 13.0 0.00 0.00 0.00 55 1008.4
20260504025021 52 213 5.2 15.6 0.00 0.00 0.00 55 1008.4
20260504024539 52 201 5.2 14.8 0.00 0.00 0.00 56 1008.5
20260504024024 52 235 6.1 13.9 0.00 0.00 0.00 56 1008.3
20260504023521 52 156 6.1 16.5 0.00 0.00 0.00 56 1008.5
20260504023037 52 212 6.1 16.5 0.00 0.00 0.00 57 1008.5
20260504022521 52 165 5.2 16.5 0.00 0.00 0.00 57 1008.6
20260504022023 52 244 5.2 13.0 0.00 0.00 0.00 56 1008.7
20260504021537 52 209 6.1 16.5 0.00 0.00 0.00 56 1008.5
20260504021020 52 213 6.1 16.5 0.00 0.00 0.00 55 1008.6
20260504020520 52 264 4.3 14.8 0.00 0.00 0.00 55 1008.6
20260504020038 52 214 5.2 13.0 0.00 0.00 0.00 56 1008.6
20260504015520 52 242 4.3 15.6 0.00 0.00 0.00 56 1008.6
20260504015024 52 211 4.3 15.6 0.00 0.00 0.00 56 1008.6
20260504014551 52 212 6.1 15.6 0.00 0.00 0.00 56 1008.6
20260504014024 52 234 5.2 15.6 0.00 0.00 0.00 56 1008.6
20260504013525 52 211 7.0 15.6 0.00 0.00 0.00 56 1008.7
20260504013036 51 232 7.8 15.6 0.00 0.00 0.00 55 1008.6
20260504012522 51 205 7.0 14.8 0.00 0.00 0.00 56 1008.6
20260504012021 51 211 5.2 14.8 0.00 0.00 0.00 57 1008.6
20260504011540 51 177 5.2 14.8 0.00 0.00 0.00 56 1008.6
20260504011020 51 228 4.3 14.8 0.00 0.00 0.00 56 1008.5
20260504010523 51 243 4.3 14.8 0.00 0.00 0.00 56 1008.5
20260504010038 51 214 6.1 15.6 0.00 0.00 0.00 56 1008.4
20260504005525 51 225 8.7 15.6 0.00 0.00 0.00 56 1008.4
20260504005021 51 219 4.3 15.6 0.00 0.00 0.00 57 1008.4
20260504004537 51 228 5.2 12.2 0.00 0.00 0.00 57 1008.5
20260504004020 51 220 4.3 10.4 0.00 0.00 0.00 57 1008.5
20260504003521 51 182 4.3 10.4 0.00 0.00 0.00 56 1008.5
20260504003045 51 219 3.5 10.4 0.00 0.00 0.00 57 1008.6
20260504002521 51 213 2.6 12.2 0.00 0.00 0.00 57 1008.6
20260504002020 51 40 3.5 20.0 0.00 0.00 0.00 56 1008.6
20260504001537 51 201 6.1 20.0 0.00 0.00 0.00 56 1008.6
20260504001020 51 207 4.3 14.8 0.00 0.00 0.00 57 1008.7
20260504000520 51 224 4.3 13.0 0.00 0.00 0.00 58 1008.8
20260504000037 51 323 5.2 13.0 0.00 0.00 0.00 59 1008.7
20260503235521 51 221 6.1 13.0 0.00 0.00 0.00 58 1008.9
20260503235021 51 148 4.3 17.4 0.00 0.00 0.00 58 1008.8
20260503234545 52 242 2.6 17.4 0.00 0.00 0.00 59 1008.9
20260503234021 52 207 5.2 12.2 0.00 0.00 0.00 58 1008.9
20260503233521 51 227 3.5 10.4 0.00 0.00 0.00 60 1009.0
20260503233037 51 254 3.5 11.3 0.00 0.00 0.00 60 1009.1
20260503232520 51 221 5.2 11.3 0.00 0.00 0.00 60 1009.1
20260503232021 51 215 2.6 13.0 0.00 0.00 0.00 60 1009.1
20260503231537 51 286 3.5 16.5 0.00 0.00 0.00 61 1009.0
20260503231024 51 236 3.5 16.5 0.00 0.00 0.00 61 1009.2
20260503230524 51 230 6.1 16.5 0.00 0.00 0.00 59 1009.1
20260503230042 51 195 4.3 15.6 0.00 0.00 0.00 60 1009.1
20260503225530 51 192 3.5 15.6 0.00 0.00 0.00 61 1009.1
20260503225023 51 217 7.0 15.6 0.00 0.00 0.00 59 1009.1
20260503224537 51 213 4.3 13.9 0.00 0.00 0.00 60 1009.0
20260503224020 51 225 5.2 13.9 0.00 0.00 0.00 61 1009.0
20260503223524 50 296 7.0 13.9 0.00 0.00 0.00 61 1009.1
20260503223041 50 237 7.0 19.1 0.00 0.00 0.00 61 1009.2
20260503222520 50 146 6.1 20.9 0.00 0.00 0.00 61 1009.1
20260503222024 50 219 7.0 20.9 0.00 0.00 0.00 61 1009.2
20260503221538 50 236 5.2 17.4 0.00 0.00 0.00 61 1009.1
20260503221021 50 240 7.0 17.4 0.00 0.00 0.00 62 1009.1
20260503220524 50 231 6.1 13.9 0.00 0.00 0.00 61 1008.9
20260503220046 50 242 6.1 19.1 0.00 0.00 0.00 60 1009.0
20260503215523 51 211 7.8 19.1 0.00 0.00 0.00 60 1008.9
20260503215020 51 254 5.2 13.9 0.00 0.00 0.00 60 1008.9
20260503214537 51 198 7.8 20.9 0.00 0.00 0.00 60 1008.9
20260503214020 51 246 8.7 20.9 0.00 0.00 0.00 59 1008.7
20260503213520 51 231 6.1 20.9 0.00 0.00 0.00 60 1008.7
20260503213035 51 196 8.7 16.5 0.00 0.00 0.00 60 1008.7
20260503212520 50 192 4.3 18.2 0.00 0.00 0.00 61 1008.7
20260503212021 50 226 6.1 18.2 0.00 0.00 0.00 61 1008.8
20260503211537 50 279 7.0 16.5 0.00 0.00 0.00 60 1008.7
20260503211023 50 220 6.1 16.5 0.00 0.00 0.00 61 1009.0
20260503210521 50 214 6.1 14.8 0.00 0.00 0.00 60 1008.8
20260503210040 50 173 6.1 13.0 0.00 0.00 0.00 60 1008.9
20260503205523 50 223 5.2 16.5 0.00 0.00 0.00 60 1008.9
20260503205021 50 204 8.7 15.6 0.00 0.00 0.00 57 1008.9
20260503204539 51 223 7.8 15.6 0.00 0.00 0.00 57 1009.0
20260503204020 51 181 7.8 15.6 0.00 0.00 0.00 56 1009.0
20260503203521 52 292 5.2 16.5 0.00 0.00 0.00 57 1009.0
20260503203038 52 181 7.0 17.4 0.00 0.00 0.00 56 1009.1
20260503202521 52 202 5.2 17.4 0.00 0.00 0.00 56 1008.9
20260503202022 51 241 7.8 17.4 0.00 0.00 0.00 54 1009.1
20260503201536 51 215 6.1 19.1 0.00 0.00 0.00 55 1009.2
20260503201020 51 252 8.7 17.4 0.00 0.00 0.00 55 1009.3
20260503200520 51 207 7.8 22.6 0.00 0.00 0.00 53 1009.2
20260503200037 52 196 7.0 23.5 0.00 0.00 0.00 53 1009.3
20260503195523 52 242 8.7 23.5 0.00 0.00 0.00 52 1009.5
20260503195020 52 238 9.6 18.2 0.00 0.00 0.00 52 1009.6
20260503194539 52 216 7.0 18.2 0.00 0.00 0.00 53 1009.7
20260503194020 51 226 7.8 16.5 0.00 0.00 0.00 52 1009.8
20260503193524 52 183 7.8 16.5 0.00 0.00 0.00 53 1009.8
20260503193039 52 223 5.2 20.0 0.00 0.00 0.00 53 1009.9
20260503192521 51 134 5.2 20.0 0.00 0.00 0.00 53 1010.1
20260503192021 52 189 7.8 18.2 0.00 0.00 0.00 50 1010.1
20260503191539 53 275 7.0 19.1 0.00 0.00 0.00 49 1010.1
20260503191021 52 213 6.1 20.9 0.00 0.00 0.00 50 1010.2
20260503190520 52 255 9.6 19.1 0.00 0.00 0.00 47 1010.2
20260503190037 52 207 10.4 23.5 0.00 0.00 0.00 48 1010.2
20260503185520 52 236 8.7 23.5 0.00 0.00 0.00 47 1010.1
20260503185023 52 224 9.6 21.7 0.00 0.00 0.00 45 1010.2
20260503184544 53 175 8.7 16.5 0.00 0.00 0.00 45 1010.2
20260503184021 53 196 6.1 18.2 0.00 0.00 0.00 45 1010.3
20260503183520 53 292 7.0 18.2 0.00 0.00 0.00 43 1010.3
20260503183052 53 208 7.0 21.7 0.00 0.00 0.00 43 1010.4
20260503182520 53 279 8.7 21.7 0.00 0.00 0.00 43 1010.3
20260503182023 53 240 8.7 24.3 0.00 0.00 0.00 42 1010.4
20260503181538 52 70 8.7 24.3 0.00 0.00 0.00 44 1010.6
20260503181024 52 209 8.7 17.4 0.00 0.00 0.00 43 1010.7
20260503180520 51 221 7.8 17.4 0.00 0.00 0.00 41 1010.7
20260503180037 52 188 4.3 15.6 0.00 0.00 0.00 46 1010.7
20260503175521 51 200 5.2 15.6 0.00 0.00 0.00 44 1011.1
20260503175025 51 198 4.3 13.9 0.00 0.00 0.00 50 1011.2
20260503174533 51 184 7.0 13.9 0.00 0.00 0.00 49 1011.3
20260503174021 50 240 5.2 19.1 0.00 0.00 0.00 50 1011.3
20260503173524 50 219 6.1 19.1 0.00 0.00 0.00 50 1011.4
20260503173038 49 249 8.7 17.4 0.00 0.00 0.00 51 1011.4
20260503172521 50 208 8.7 16.5 0.00 0.00 0.00 50 1011.4
20260503172020 50 196 6.1 15.6 0.00 0.00 0.00 55 1011.5
20260503171537 49 178 3.5 11.3 0.00 0.00 0.00 55 1011.6
20260503171020 49 232 4.3 12.2 0.00 0.00 0.00 54 1011.7
20260503170521 50 230 4.3 13.0 0.00 0.00 0.00 56 1011.7
20260503150520 48 270 6.1 13.9 0.00 0.00 0.00 55 1012.4
20260503131020 44 271 5.2 9.6 0.00 0.00 0.00 74 1013.1
20260503130520 43 222 4.3 10.4 0.00 0.00 0.00 76 1013.2
20260503110520 33 173 0.9 2.6 0.00 0.00 0.00 91 1013.2
20260503081604 32 0 0.0 0.9 0.00 0.00 0.00 91 1013.2
20260503081021 32 0 0.0 1.7 0.00 0.00 0.00 91 1013.2
20260503080521 32 0 0.0 1.7 0.00 0.00 0.00 91 1013.1
20260503072522 33 173 0.9 1.7 0.00 0.00 0.00 91 1013.1
20260503072021 32 0 0.0 1.7 0.00 0.00 0.00 90 1013.1
20260503071537 32 173 0.0 1.7 0.00 0.00 0.00 90 1013.2
20260503071022 32 0 0.0 1.7 0.00 0.00 0.00 90 1013.1
20260503070522 32 0 0.0 1.7 0.00 0.00 0.00 89 1013.2
20260503055021 34 173 0.0 1.7 0.00 0.00 0.00 86 1013.5
20260503054544 34 0 0.0 1.7 0.00 0.00 0.00 86 1013.4
20260503054024 34 173 0.0 1.7 0.00 0.00 0.00 86 1013.5
20260503053521 35 173 0.0 1.7 0.00 0.00 0.00 85 1013.5
20260503053039 35 173 0.0 2.6 0.00 0.00 0.00 85 1013.5
20260503052521 35 173 0.0 2.6 0.00 0.00 0.00 85 1013.6
20260503052021 35 0 0.0 2.6 0.00 0.00 0.00 84 1013.7
20260503051537 35 173 0.0 1.7 0.00 0.00 0.00 84 1013.7
20260503051020 35 173 0.0 1.7 0.00 0.00 0.00 83 1013.7
20260503050524 36 173 0.9 2.6 0.00 0.00 0.00 83 1013.7
20260503050040 36 173 0.9 2.6 0.00 0.00 0.00 83 1013.8
20260503045521 36 173 0.0 4.3 0.00 0.00 0.00 82 1013.8
20260503045024 36 173 0.9 4.3 0.00 0.00 0.00 82 1013.8
20260503044541 36 175 0.9 4.3 0.00 0.00 0.00 81 1013.7
20260503044020 37 175 0.0 4.3 0.00 0.00 0.00 81 1013.8
20260503043521 37 175 0.9 2.6 0.00 0.00 0.00 81 1013.9
20260503043037 37 175 0.9 2.6 0.00 0.00 0.00 80 1013.9
20260503042521 37 175 0.0 4.3 0.00 0.00 0.00 79 1014.0
20260503042020 38 0 0.9 3.5 0.00 0.00 0.00 79 1014.0
20260503041535 38 175 0.9 3.5 0.00 0.00 0.00 78 1014.0
20260503041021 38 175 0.9 5.2 0.00 0.00 0.00 78 1014.0
20260503040521 38 211 0.9 5.2 0.00 0.00 0.00 77 1014.1
20260503040045 38 176 1.7 4.3 0.00 0.00 0.00 77 1014.1
20260503035521 38 221 0.9 3.5 0.00 0.00 0.00 76 1014.1
20260503035022 38 241 0.9 2.6 0.00 0.00 0.00 76 1014.1
20260503034546 38 199 0.0 1.7 0.00 0.00 0.00 75 1014.1
20260503034021 38 199 0.0 1.7 0.00 0.00 0.00 75 1014.1
20260503033521 38 199 0.0 1.7 0.00 0.00 0.00 75 1014.1
20260503033049 38 0 0.0 2.6 0.00 0.00 0.00 74 1014.1
20260503032520 39 199 0.0 2.6 0.00 0.00 0.00 74 1014.1
20260503032025 39 199 0.9 2.6 0.00 0.00 0.00 73 1014.1
20260503031550 39 0 0.0 1.7 0.00 0.00 0.00 74 1014.1